Regional Weather Roundup
Issued by NWS Columbia, SC

Home | Current Version | Previous Version | Text Only | Print | Product List | Glossary On
Versions: 1 2 3 4 5 6 7 8 9 10 11 12 13 14 15 16 17 18 19 20 21 22 23 24 25 26 27 28 29 30 31 32 33 34 35 36 37 38 39 40 41 42 43 44 45 46 47 48 49
000
ASUS42 KCAE 290910
RWRCAE
REGIONAL WEATHER ROUNDUP
NATIONAL WEATHER SERVICE COLUMBIA SC
500 AM EDT SUN MAR 29 2015

NOTE: "FAIR" INDICATES FEW OR NO CLOUDS BELOW 12,000 FEET WITH NO
SIGNIFICANT WEATHER AND/OR OBSTRUCTIONS TO VISIBILITY.

NOT ALL STATIONS ARE QUALITY CONTROLLED BY THE NATIONAL
WEATHER SERVICE. USE DATA WITH CAUTION...ESPECIALLY
DEWPOINT OBSERVATIONS.

SCZ001>056-GAZ040-063>065-077-291000-
...UPSTATE SOUTH CAROLINA...

CITY           SKY/WX    TMP DP  RH WIND       PRES   REMARKS
ANDERSON       CLEAR     30  17  58 NE7       30.32R WCI  23
LIBERTY        SUNNY     24  22  91 CALM      30.30R
SPARTANBURG    CLEAR     30  21  69 CALM      30.32R
CLEMSON        CLEAR     33  23  66 CALM      30.32R
GREENVILLE     CLEAR     35  10  35 NE9       30.31R WCI  28
GREENWOOD      CLEAR     28  21  75 CALM      30.34R
GREER          CLEAR     32  13  45 CALM      30.30R
ROCK HILL      CLEAR     30  10  43 NE3       30.33R
CHESTER        SUNNY     30  19  64 NE3       30.33R
LAURENS        SUNNY     28  23  80 CALM      30.32R


...CENTRAL SOUTH CAROLINA...

CITY           SKY/WX    TMP DP  RH WIND       PRES   REMARKS
COLUMBIA APT   CLEAR     37  15  40 E6        30.34R WCI  32
COLUMBIA OWENS CLEAR     35  18  49 CALM      30.36R
DARLINGTON     CLEAR     28  21  74 NE5       30.36R WCI  23
FLORENCE       CLEAR     34  14  43 N7        30.34R WCI  28
MCENTIRE ANGB  CLEAR     33  18  53 CALM      30.34R
ORANGEBURG     CLEAR     36  20  52 NE6       30.33R WCI  31
SUMTER SHAW    CLEAR     30  19  62 NE5       30.32R WCI  25
NEWBERRY       SUNNY     28  21  74 NE5       30.36R WCI  23
AIKEN          FAIR      32  19  59 NE5       30.35R WCI  27
BARNWELL       FAIR      36  23  60 NE5       30.32R WCI  32
MANNING        FLURRIES  34  18  51 NE6       30.33R WCI  29
CAMDEN         FAIR      30  18  59 CALM      30.35R
LANCASTER      SUNNY     28  16  59 CALM      30.34R
WINNSBORO      SUNNY     32  18  55 E6        30.32R WCI  26


...EASTERN AND COASTAL SOUTH CAROLINA...

CITY           SKY/WX    TMP DP  RH WIND       PRES   REMARKS
MYRTLE BEACH   CLEAR     36  18  48 N10       30.34R WCI  28
N MYRTLE BCH   CLEAR     35  18  49 N9        30.32R WCI  28
CONWAY         FAIR      34  21  60 N6        30.33R WCI  29
MARION         FAIR      32  21  64 CALM      30.35R
HARTSVILLE     FAIR      30  16  55 NE6       30.35R WCI  24
FLORENCE       CLEAR     34  14  43 N7        30.34R WCI  28
DARLINGTON     CLEAR     28  21  74 NE5       30.36R WCI  23
CHARLESTON APT CLEAR     37  25  61 NE9       30.31R WCI  30
MOUNT PLEASANT LGT RAIN  37  27  65 N6        30.31R WCI  33
WALTERBORO     SUNNY     36  27  69 NE8       30.32R WCI  29
BEAUFORT       CLEAR     41  28  60 NE10      30.29R


...EASTERN GEORGIA...

CITY           SKY/WX    TMP DP  RH WIND       PRES   REMARKS
AUGUSTA BUSH F CLEAR     34  21  59 N6        30.33R WCI  29
AUGUSTA DANIEL CLEAR     38  19  46 N5        30.32R WCI  34
THOMSON        CLEAR     30  30  97 CALM      30.37R
WASHINGTON     FAIR      36  28  75 NE3       30.32R
CLAXTON        FAIR      41  27  56 N5        30.30R
SYLVANIA       SUNNY     39  25  58 NE6       30.31R WCI  34
STATESBORO     CLEAR     40  24  52 NE6       30.30R
SAVANNAH       CLEAR     37  27  67 N8        30.28R WCI  31


...SOUTHERN NORTH CAROLINA...

CITY           SKY/WX    TMP DP  RH WIND       PRES   REMARKS
CHARLOTTE      CLEAR     32   7  35 NE7       30.33R WCI  26
MONROE         CLEAR     30  12  47 NE10      30.32R WCI  21
WADESBORO      SUNNY     24  19  82 CALM      30.35R
ROCKINGHAM       N/A     27  17  65 CALM      30.34R
RUTHERFORDTON  CLEAR     26  17  67 CALM      30.31R
ASHEVILLE      CLEAR     28   8  43 N12       30.27R WCI  18

$$


USA.gov is the U.S. government's official web portal to all federal, state and local government web resources and services.